Location: Bachas
(43.2439°N, 0.9375°E)
Time: 03:09:06
(UTC+00:00)

Meteor 1-27 - Pass Details

Date: 18 February 2020
Orbit: 839 x 891 km, 81.3° (Epoch: 09 April)

Event Time Altitude Azimuth Distance (km) Brightness Sun altitude
Rises 05:17:56 0° 200° (SSW) 3,388 7.1 -17.6°
Reaches altitude 10° 05:20:23 10° 204° (SSW) 2,453 6.4 -17.1°
Maximum altitude 05:25:50 57° 283° (WNW) 982 4.2 -16.1°
Drops below altitude 10° 05:31:20 10° 2° (N) 2,465 6.6 -15.1°
Sets 05:33:48 0° 7° (N) 3,406 7.4 -14.7°
